RYR7QM LQBK-LOWW

Flight info

Callsign RYR7QM
Flight time 0h 48m
Altitude 32000
Route TEBLI DCT OBUTI OBUTI2W
Aircraft B738/M-SDE3FGILRWY/SB1

Departure

Time 2026-04-24 15:25
Airport Banja Luka International Airport (LQBK)

Arrival

Time 2026-04-24 16:13
Airport Vienna International Airport (LOWW)
Time Latitude Longitude Altitude Speed Heading
2026-04-24 15:13 44.93357 17.30280 401 ft 0 kts 328°
2026-04-24 15:21 44.93372 17.30244 401 ft 13 kts 256°
2026-04-24 15:21 44.93285 17.30221 401 ft 13 kts 169°
2026-04-24 15:22 44.93200 17.30210 402 ft 12 kts 211°
2026-04-24 15:22 44.93140 17.30150 403 ft 3 kts 216°
2026-04-24 15:22 44.93138 17.30148 403 ft 0 kts 216°
2026-04-24 15:23 44.93117 17.30126 403 ft 10 kts 220°
2026-04-24 15:23 44.93101 17.30036 403 ft 10 kts 297°
2026-04-24 15:24 44.94193 17.29734 391 ft 143 kts 349°
2026-04-24 15:25 44.96368 17.29163 1533 ft 156 kts 351°
2026-04-24 15:25 44.98708 17.28592 2347 ft 189 kts 351°
2026-04-24 15:26 45.03002 17.27204 4154 ft 238 kts 328°
2026-04-24 15:27 45.05418 17.20624 6456 ft 269 kts 291°
2026-04-24 15:27 45.07403 17.13207 9160 ft 276 kts 295°
2026-04-24 15:28 45.10403 17.02566 11726 ft 320 kts 295°
2026-04-24 15:29 45.12078 16.96594 13318 ft 332 kts 295°
2026-04-24 15:30 45.14668 16.87323 15716 ft 349 kts 295°
2026-04-24 15:31 45.18342 16.74195 18692 ft 371 kts 296°
2026-04-24 15:32 45.25328 16.64006 21559 ft 372 kts 339°
2026-04-24 15:33 45.35629 16.61580 24162 ft 384 kts 354°
2026-04-24 15:33 45.43557 16.59613 26022 ft 393 kts 350°
2026-04-24 15:34 45.48940 16.57913 27295 ft 396 kts 349°
2026-04-24 15:35 45.56800 16.55275 29609 ft 386 kts 349°
2026-04-24 15:35 45.62005 16.53509 30917 ft 382 kts 349°
2026-04-24 15:35 45.64553 16.52642 31481 ft 381 kts 349°
2026-04-24 15:36 45.67119 16.51769 31978 ft 380 kts 350°
2026-04-24 15:36 45.74862 16.49134 32033 ft 377 kts 349°
2026-04-24 15:37 45.79982 16.47387 32031 ft 378 kts 349°
2026-04-24 15:37 45.85080 16.45644 32029 ft 377 kts 349°
2026-04-24 15:38 45.90201 16.43891 32027 ft 377 kts 349°
2026-04-24 15:38 45.95264 16.42153 32032 ft 376 kts 349°
2026-04-24 15:39 46.00375 16.40396 32035 ft 375 kts 349°
2026-04-24 15:39 46.05455 16.38647 32033 ft 376 kts 349°
2026-04-24 15:40 46.10538 16.36893 32038 ft 376 kts 349°
2026-04-24 15:40 46.15638 16.35130 32034 ft 376 kts 349°
2026-04-24 15:41 46.20707 16.33374 32036 ft 376 kts 349°
2026-04-24 15:41 46.25819 16.31599 32040 ft 376 kts 348°
2026-04-24 15:42 46.30888 16.29837 32035 ft 376 kts 348°
2026-04-24 15:42 46.35954 16.28073 32036 ft 375 kts 348°
2026-04-24 15:43 46.41029 16.26470 31776 ft 373 kts 352°
2026-04-24 15:43 46.43581 16.25860 31391 ft 368 kts 353°
2026-04-24 15:43 46.46066 16.25312 31041 ft 362 kts 353°
2026-04-24 15:44 46.48521 16.24777 30614 ft 358 kts 353°
2026-04-24 15:44 46.50993 16.24231 30342 ft 359 kts 353°
2026-04-24 15:44 46.53473 16.23673 30066 ft 365 kts 352°
2026-04-24 15:44 46.55973 16.23100 29660 ft 363 kts 352°
2026-04-24 15:45 46.58435 16.22527 29212 ft 360 kts 352°
2026-04-24 15:45 46.60885 16.21950 28749 ft 356 kts 352°
2026-04-24 15:45 46.63341 16.21368 28284 ft 353 kts 352°
2026-04-24 15:45 46.65736 16.20799 27828 ft 349 kts 352°
2026-04-24 15:46 46.68118 16.20232 27379 ft 346 kts 352°
2026-04-24 15:46 46.70465 16.19673 26935 ft 343 kts 351°
2026-04-24 15:46 46.72801 16.19115 26488 ft 340 kts 351°
2026-04-24 15:46 46.75135 16.18558 26043 ft 337 kts 351°
2026-04-24 15:47 46.77445 16.18005 25603 ft 334 kts 351°
2026-04-24 15:47 46.79704 16.17464 25169 ft 332 kts 351°
2026-04-24 15:47 46.81985 16.16918 24726 ft 329 kts 351°
2026-04-24 15:47 46.84213 16.16384 24297 ft 326 kts 351°
2026-04-24 15:48 46.86426 16.15853 23874 ft 323 kts 351°
2026-04-24 15:48 46.88637 16.15322 23447 ft 321 kts 351°
2026-04-24 15:48 46.90825 16.14795 23027 ft 318 kts 351°
2026-04-24 15:48 46.93011 16.14269 22598 ft 316 kts 351°
2026-04-24 15:49 46.95163 16.13751 22182 ft 313 kts 351°
2026-04-24 15:49 46.97288 16.13239 21764 ft 311 kts 351°
2026-04-24 15:49 46.99424 16.12724 21349 ft 308 kts 351°
2026-04-24 15:49 47.01527 16.12217 20941 ft 306 kts 351°
2026-04-24 15:50 47.03615 16.11713 20530 ft 304 kts 351°
2026-04-24 15:50 47.05682 16.11213 20133 ft 301 kts 351°
2026-04-24 15:50 47.07742 16.10714 19731 ft 299 kts 351°
2026-04-24 15:50 47.09761 16.10225 19333 ft 297 kts 351°
2026-04-24 15:51 47.11817 16.09727 18922 ft 295 kts 351°
2026-04-24 15:51 47.13823 16.09241 18541 ft 293 kts 351°
2026-04-24 15:51 47.15825 16.08755 18151 ft 291 kts 351°
2026-04-24 15:51 47.17802 16.08275 17772 ft 289 kts 350°
2026-04-24 15:52 47.19797 16.07790 17385 ft 287 kts 350°
2026-04-24 15:52 47.21761 16.07313 16998 ft 286 kts 350°
2026-04-24 15:52 47.23701 16.06840 16617 ft 284 kts 350°
2026-04-24 15:52 47.25638 16.06369 16240 ft 282 kts 350°
2026-04-24 15:53 47.27573 16.05897 15866 ft 280 kts 350°
2026-04-24 15:53 47.29497 16.05428 15484 ft 279 kts 350°
2026-04-24 15:53 47.31404 16.04962 15109 ft 277 kts 350°
2026-04-24 15:53 47.33300 16.04499 14741 ft 275 kts 350°
2026-04-24 15:54 47.35181 16.04056 14368 ft 273 kts 352°
2026-04-24 15:54 47.37059 16.03924 14069 ft 271 kts
2026-04-24 15:54 47.38912 16.04482 14064 ft 279 kts 14°
2026-04-24 15:54 47.40797 16.05396 14052 ft 283 kts 16°
2026-04-24 15:55 47.42633 16.06357 14053 ft 283 kts 17°
2026-04-24 15:55 47.44505 16.07329 14052 ft 282 kts 16°
2026-04-24 15:55 47.46330 16.08258 13901 ft 276 kts 16°
2026-04-24 15:55 47.48123 16.09158 13592 ft 273 kts 15°
2026-04-24 15:56 47.49939 16.10061 13235 ft 271 kts 15°
2026-04-24 15:56 47.51706 16.10937 12867 ft 269 kts 15°
2026-04-24 15:56 47.53484 16.11819 12506 ft 267 kts 15°
2026-04-24 15:56 47.55248 16.12695 12152 ft 266 kts 14°
2026-04-24 15:57 47.56982 16.13559 11799 ft 264 kts 14°
2026-04-24 15:57 47.58723 16.14426 11450 ft 262 kts 14°
2026-04-24 15:57 47.60434 16.15278 11099 ft 260 kts 14°
2026-04-24 15:57 47.62131 16.16125 10731 ft 260 kts 14°
2026-04-24 15:58 47.63854 16.16985 10379 ft 258 kts 13°
2026-04-24 15:58 47.65523 16.17819 10050 ft 256 kts 13°
2026-04-24 15:58 47.67192 16.18657 9884 ft 247 kts 13°
2026-04-24 15:58 47.68820 16.19472 9542 ft 247 kts 13°
2026-04-24 15:59 47.70417 16.20269 9223 ft 245 kts 13°
2026-04-24 15:59 47.72039 16.21079 8909 ft 244 kts 13°
2026-04-24 15:59 47.73656 16.21889 8587 ft 243 kts 13°
2026-04-24 15:59 47.75280 16.22700 8273 ft 253 kts 14°
2026-04-24 16:00 47.76894 16.23766 8011 ft 260 kts 28°
2026-04-24 16:00 47.78260 16.25560 8022 ft 268 kts 41°
2026-04-24 16:00 47.79508 16.27660 8007 ft 270 kts 44°
2026-04-24 16:00 47.80746 16.29777 8009 ft 271 kts 43°
2026-04-24 16:01 47.81991 16.31840 8014 ft 270 kts 42°
2026-04-24 16:01 47.83271 16.33907 8013 ft 270 kts 41°
2026-04-24 16:01 47.84542 16.35936 8010 ft 271 kts 41°
2026-04-24 16:01 47.85841 16.38005 7945 ft 273 kts 41°
2026-04-24 16:02 47.87136 16.40067 7553 ft 275 kts 41°
2026-04-24 16:02 47.88325 16.42302 7188 ft 279 kts 54°
2026-04-24 16:02 47.89086 16.44977 6876 ft 281 kts 69°
2026-04-24 16:02 47.89539 16.47809 6533 ft 282 kts 79°
2026-04-24 16:03 47.89390 16.50725 6208 ft 285 kts 104°
2026-04-24 16:03 47.88542 16.53331 6003 ft 283 kts 126°
2026-04-24 16:03 47.87103 16.55297 6005 ft 285 kts 152°
2026-04-24 16:03 47.85263 16.56366 6007 ft 283 kts 166°
2026-04-24 16:04 47.83342 16.57094 6008 ft 283 kts 168°
2026-04-24 16:04 47.81515 16.58044 5999 ft 273 kts 149°
2026-04-24 16:04 47.80209 16.59942 6013 ft 258 kts 120°
2026-04-24 16:04 47.79557 16.62318 5987 ft 240 kts 99°
2026-04-24 16:05 47.79530 16.66969 5668 ft 218 kts 66°
2026-04-24 16:05 47.80223 16.68892 5441 ft 207 kts 48°
2026-04-24 16:06 47.82518 16.71109 4404 ft 208 kts 357°
2026-04-24 16:06 47.83863 16.70502 3974 ft 201 kts 326°
2026-04-24 16:06 47.86189 16.68689 3620 ft 180 kts 341°
2026-04-24 16:07 47.87359 16.68164 3521 ft 168 kts 342°
2026-04-24 16:07 47.88447 16.67697 3355 ft 161 kts 342°
2026-04-24 16:07 47.90568 16.66804 3000 ft 156 kts 341°
2026-04-24 16:08 47.91626 16.66355 3017 ft 163 kts 342°
2026-04-24 16:08 47.93864 16.65424 3011 ft 166 kts 342°
2026-04-24 16:09 47.96022 16.64519 3020 ft 159 kts 341°
2026-04-24 16:09 47.97080 16.64072 2978 ft 161 kts 341°
2026-04-24 16:09 47.98172 16.63621 2760 ft 163 kts 341°
2026-04-24 16:09 47.99258 16.63172 2528 ft 158 kts 340°
2026-04-24 16:10 48.02219 16.61928 1934 ft 131 kts 338°
2026-04-24 16:11 48.03967 16.61184 1594 ft 131 kts 339°
2026-04-24 16:11 48.04872 16.60809 1431 ft 137 kts 340°
2026-04-24 16:11 48.05778 16.60431 1236 ft 134 kts 339°
2026-04-24 16:12 48.07600 16.59667 878 ft 138 kts 340°
2026-04-24 16:12 48.08525 16.59291 712 ft 138 kts 339°
2026-04-24 16:12 48.10075 16.58608 608 ft 68 kts 341°
2026-04-24 16:13 48.10385 16.58435 608 ft 27 kts 313°
2026-04-24 16:13 48.10572 16.58130 608 ft 17 kts 345°
2026-04-24 16:14 48.10801 16.58032 608 ft 16 kts 344°
2026-04-24 16:14 48.10914 16.57985 608 ft 17 kts 343°
2026-04-24 16:14 48.11126 16.57811 607 ft 12 kts 296°
2026-04-24 16:15 48.11148 16.57741 607 ft 10 kts 293°
2026-04-24 16:15 48.11211 16.57544 607 ft 9 kts 297°
2026-04-24 16:16 48.11275 16.57345 608 ft 16 kts 295°
2026-04-24 16:16 48.11327 16.57187 607 ft 18 kts 297°
2026-04-24 16:17 48.11499 16.56663 607 ft 18 kts 295°
2026-04-24 16:17 48.11619 16.56295 608 ft 19 kts 297°
2026-04-24 16:18 48.11733 16.55944 608 ft 18 kts 296°
2026-04-24 16:18 48.11786 16.55807 607 ft 2 kts 324°
2026-04-24 16:18 48.11809 16.55792 608 ft 5 kts 343°
2026-04-24 16:19 48.11866 16.55774 608 ft 2 kts 349°
2026-04-24 16:19 48.11883 16.55769 608 ft 1 kts 349°
2026-04-24 16:20 48.11896 16.55765 607 ft 0 kts 350°